User: anonymous   Login
Location: Elk Forest
(39.5314°N, 75.8738°W)
Time: 12:16:55
(UTC-04:00)
Language:

Resurs 01 Rocket - Orbit

View from above orbital plane
View from above orbital plane
View from above satellite
View from above satellite

Ground track
Ground track

The orbit data is extracted from the following two-line orbital elements,

1 23343U 94074B   15248.08700876  .00000094  00000-0  21162-4 0  9994
2 23343  98.2174 264.9590 0007062  10.0917  55.3746 14.76565198120742
Epoch (UTC): 05 September 2015 02:05:17
Eccentricity: 0.0007062
inclination: 98.2174°
perigee height: 635 km
apogee height: 645 km
right ascension of ascending node: 264.9590°
argument of perigee: 10.0917°
revolutions per day: 14.76565198
mean anomaly at epoch: 55.3746°
orbit number at epoch: 12074

The dashed part of the orbit path shows where the satellite is in the earth's shadow,  

DLR